Private Wetterstation Wechselburg
Wetterdaten: Dienstag, 30.03.2021
Datum Zeit Temp. +2m Bodentemp. Temp.+5cm Temp. Wind Windchill X Diff Temp. Feuchte +2m Feuchte +5cm Luftdruck Regen Wind Richtung Richtung Sonnenschein Taupunkt Windchill Windben
30.03.2021 00:00 10,2 C 10,1 C 7,8 C 9,9 C 9,2 C 0,0 C 64 % 73 % 1032,5 hPa 0,0 l/m 0,0 km/h (0 Bft) NO 45 0 min 3,7 C 9,2 C 0,0 km/h (0 Bft)
30.03.2021 00:05 10,2 C 10,1 C 7,6 C 9,8 C 9,0 C 0,0 C 64 % 74 % 1032,5 hPa 0,0 l/m 0,0 km/h (0 Bft) NO 45 0 min 3,7 C 9,0 C 0,0 km/h (0 Bft)
30.03.2021 00:10 10,1 C 10,1 C 7,6 C 9,7 C 9,0 C 0,0 C 65 % 74 % 1032,5 hPa 0,0 l/m 0,0 km/h (0 Bft) O 90 0 min 3,8 C 9,0 C 0,0 km/h (0 Bft)
30.03.2021 00:15 10,0 C 10,0 C 7,5 C 9,6 C 8,9 C 0,0 C 65 % 74 % 1032,5 hPa 0,0 l/m 0,0 km/h (0 Bft) O 90 0 min 3,7 C 8,9 C 0,0 km/h (0 Bft)
30.03.2021 00:20 9,9 C 10,0 C 7,3 C 9,5 C 8,7 C 0,0 C 65 % 75 % 1033,1 hPa 0,0 l/m 0,0 km/h (0 Bft) O 90 0 min 3,6 C 8,7 C 0,0 km/h (0 Bft)
30.03.2021 00:25 9,9 C 10,0 C 7,1 C 9,4 C 8,5 C 0,0 C 65 % 75 % 1033,1 hPa 0,0 l/m 0,0 km/h (0 Bft) O 90 0 min 3,6 C 8,5 C 0,0 km/h (0 Bft)
30.03.2021 00:30 9,7 C 10,0 C 7,1 C 9,3 C 8,4 C 0,0 C 65 % 75 % 1033,1 hPa 0,0 l/m 0,0 km/h (0 Bft) O 90 0 min 3,4 C 8,4 C 0,0 km/h (0 Bft)
30.03.2021 00:35 9,6 C 10,0 C 7,0 C 9,2 C 8,3 C 0,0 C 65 % 75 % 1033,1 hPa 0,0 l/m 0,0 km/h (0 Bft) O 90 0 min 3,4 C 8,3 C 0,0 km/h (0 Bft)
30.03.2021 00:40 9,6 C 10,0 C 7,0 C 9,2 C 8,3 C 0,0 C 65 % 75 % 1033,1 hPa 0,0 l/m 0,0 km/h (0 Bft) O 90 0 min 3,4 C 8,3 C 0,0 km/h (0 Bft)
30.03.2021 00:45 9,4 C 10,0 C 6,9 C 9,0 C 8,2 C 0,0 C 66 % 76 % 1033,1 hPa 0,0 l/m 0,0 km/h (0 Bft) O 90 0 min 3,4 C 8,2 C 0,0 km/h (0 Bft)
30.03.2021 00:50 9,3 C 10,0 C 6,8 C 8,9 C 8,1 C 0,0 C 66 % 76 % 1033,1 hPa 0,0 l/m 0,0 km/h (0 Bft) O 90 0 min 3,3 C 8,1 C 0,0 km/h (0 Bft)
30.03.2021 00:55 9,2 C 10,0 C 6,7 C 8,8 C 8,0 C 0,0 C 66 % 76 % 1033,1 hPa 0,0 l/m 0,0 km/h (0 Bft) O 90 0 min 3,2 C 8,0 C 0,0 km/h (0 Bft)
30.03.2021 01:00 9,0 C 10,0 C 6,4 C 8,6 C 7,9 C 0,0 C 67 % 77 % 1032,9 hPa 0,0 l/m 0,0 km/h (0 Bft) O 90 0 min 3,2 C 7,9 C 0,0 km/h (0 Bft)
30.03.2021 01:05 8,8 C 9,9 C 6,3 C 8,5 C 7,8 C 0,0 C 67 % 77 % 1032,9 hPa 0,0 l/m 0,0 km/h (0 Bft) O 90 0 min 3,0 C 7,8 C 0,0 km/h (0 Bft)
30.03.2021 01:10 8,8 C 9,9 C 6,3 C 8,5 C 7,8 C 0,0 C 67 % 77 % 1032,9 hPa 0,0 l/m 0,0 km/h (0 Bft) O 90 0 min 3,0 C 7,8 C 0,0 km/h (0 Bft)
30.03.2021 01:15 8,7 C 9,9 C 6,2 C 8,4 C 7,8 C 0,0 C 68 % 78 % 1032,9 hPa 0,0 l/m 0,0 km/h (0 Bft) O 90 0 min 3,1 C 7,8 C 0,0 km/h (0 Bft)
30.03.2021 01:20 8,5 C 9,9 C 6,1 C 8,3 C 7,8 C 0,0 C 68 % 78 % 1032,9 hPa 0,0 l/m 0,0 km/h (0 Bft) O 90 0 min 2,9 C 7,8 C 0,0 km/h (0 Bft)
30.03.2021 01:25 8,4 C 9,9 C 6,0 C 8,2 C 7,8 C 0,0 C 68 % 78 % 1032,9 hPa 0,0 l/m 0,0 km/h (0 Bft) O 90 0 min 2,8 C 7,8 C 0,0 km/h (0 Bft)
30.03.2021 01:30 8,2 C 9,9 C 5,9 C 8,1 C 7,8 C 0,0 C 68 % 78 % 1032,9 hPa 0,0 l/m 0,0 km/h (0 Bft) O 90 0 min 2,7 C 7,8 C 0,0 km/h (0 Bft)
30.03.2021 01:35 8,2 C 9,9 C 5,8 C 8,1 C 7,8 C 0,0 C 69 % 78 % 1032,9 hPa 0,0 l/m 0,0 km/h (0 Bft) O 90 0 min 2,9 C 7,8 C 0,0 km/h (0 Bft)
30.03.2021 01:40 8,2 C 9,9 C 5,9 C 8,1 C 7,8 C 0,0 C 69 % 79 % 1033,4 hPa 0,0 l/m 0,0 km/h (0 Bft) O 90 0 min 2,9 C 7,8 C 0,0 km/h (0 Bft)
30.03.2021 01:45 8,1 C 9,9 C 5,8 C 8,0 C 7,7 C 0,0 C 69 % 79 % 1033,4 hPa 0,0 l/m 0,0 km/h (0 Bft) O 90 0 min 2,8 C 7,7 C 0,0 km/h (0 Bft)
30.03.2021 01:50 8,0 C 9,9 C 5,7 C 7,8 C 7,5 C 0,0 C 69 % 79 % 1033,4 hPa 0,0 l/m 0,0 km/h (0 Bft) O 90 0 min 2,7 C 7,5 C 0,0 km/h (0 Bft)
30.03.2021 01:55 7,9 C 9,9 C 5,6 C 7,8 C 7,5 C 0,0 C 69 % 79 % 1033,4 hPa 0,0 l/m 0,0 km/h (0 Bft) O 90 0 min 2,6 C 7,5 C 0,0 km/h (0 Bft)
30.03.2021 02:00 7,7 C 9,8 C 5,5 C 7,5 C 7,2 C 0,0 C 69 % 79 % 1033,5 hPa 0,0 l/m 0,0 km/h (0 Bft) O 90 0 min 2,4 C 7,2 C 0,0 km/h (0 Bft)
30.03.2021 02:05 7,6 C 9,8 C 5,5 C 7,4 C 7,1 C 0,0 C 69 % 79 % 1033,5 hPa 0,0 l/m 0,0 km/h (0 Bft) O 90 0 min 2,3 C 7,1 C 0,0 km/h (0 Bft)
30.03.2021 02:10 7,4 C 9,8 C 5,4 C 7,2 C 6,9 C 0,0 C 69 % 80 % 1033,5 hPa 0,0 l/m 0,0 km/h (0 Bft) O 90 0 min 2,1 C 6,9 C 0,0 km/h (0 Bft)
30.03.2021 02:15 7,2 C 9,9 C 5,3 C 7,1 C 6,8 C 0,0 C 70 % 80 % 1033,5 hPa 0,0 l/m 0,0 km/h (0 Bft) O 90 0 min 2,1 C 6,8 C 0,0 km/h (0 Bft)
30.03.2021 02:20 7,1 C 9,9 C 5,2 C 6,9 C 6,6 C 0,0 C 71 % 80 % 1033,4 hPa 0,0 l/m 0,0 km/h (0 Bft) O 90 0 min 2,2 C 6,6 C 0,0 km/h (0 Bft)
30.03.2021 02:25 6,9 C 9,9 C 5,2 C 6,7 C 6,2 C 0,0 C 71 % 81 % 1033,4 hPa 0,0 l/m 0,0 km/h (0 Bft) O 90 0 min 2,0 C 6,2 C 0,0 km/h (0 Bft)
30.03.2021 02:30 6,7 C 9,9 C 5,1 C 6,4 C 5,8 C 0,0 C 70 % 81 % 1033,4 hPa 0,0 l/m 0,0 km/h (0 Bft) O 90 0 min 1,6 C 5,8 C 0,0 km/h (0 Bft)
30.03.2021 02:35 6,5 C 10,0 C 5,0 C 6,2 C 5,5 C 0,0 C 71 % 81 % 1033,4 hPa 0,0 l/m 0,0 km/h (0 Bft) O 90 0 min 1,6 C 5,5 C 0,0 km/h (0 Bft)
30.03.2021 02:40 6,2 C 9,9 C 4,8 C 5,8 C 5,1 C 0,0 C 72 % 81 % 1033,1 hPa 0,0 l/m 0,0 km/h (0 Bft) O 90 0 min 1,5 C 5,1 C 0,0 km/h (0 Bft)
30.03.2021 02:45 6,1 C 9,9 C 4,7 C 5,6 C 4,7 C 0,0 C 72 % 82 % 1033,1 hPa 0,0 l/m 0,0 km/h (0 Bft) O 90 0 min 1,4 C 4,7 C 0,0 km/h (0 Bft)
30.03.2021 02:50 5,9 C 9,9 C 4,6 C 5,4 C 4,3 C 0,0 C 72 % 82 % 1033,1 hPa 0,0 l/m 0,0 km/h (0 Bft) O 90 0 min 1,2 C 4,3 C 0,0 km/h (0 Bft)
30.03.2021 02:55 5,7 C 9,9 C 4,5 C 5,2 C 4,1 C 0,0 C 72 % 82 % 1033,1 hPa 0,0 l/m 0,0 km/h (0 Bft) O 90 0 min 1,1 C 4,1 C 0,0 km/h (0 Bft)
30.03.2021 03:00 5,5 C 9,9 C 4,4 C 5,0 C 3,9 C 0,0 C 73 % 82 % 1033,8 hPa 0,0 l/m 0,0 km/h (0 Bft) O 90 0 min 1,1 C 3,9 C 0,0 km/h (0 Bft)
30.03.2021 03:05 5,3 C 9,9 C 4,3 C 4,7 C 3,6 C 0,0 C 73 % 83 % 1033,8 hPa 0,0 l/m 0,0 km/h (0 Bft) O 90 0 min 0,9 C 3,6 C 0,0 km/h (0 Bft)
30.03.2021 03:10 5,2 C 9,9 C 4,2 C 4,7 C 3,7 C 0,0 C 74 % 83 % 1033,8 hPa 0,0 l/m 0,0 km/h (0 Bft) O 90 0 min 1,0 C 3,7 C 0,0 km/h (0 Bft)
30.03.2021 03:15 5,1 C 9,9 C 4,1 C 4,7 C 3,9 C 0,0 C 74 % 83 % 1033,8 hPa 0,0 l/m 0,0 km/h (0 Bft) O 90 0 min 0,9 C 3,9 C 0,0 km/h (0 Bft)
30.03.2021 03:20 4,9 C 9,9 C 4,1 C 4,6 C 3,9 C 0,0 C 74 % 83 % 1033,6 hPa 0,0 l/m 0,0 km/h (0 Bft) O 90 0 min 0,7 C 3,9 C 0,0 km/h (0 Bft)
30.03.2021 03:25 4,9 C 9,9 C 4,1 C 4,5 C 3,8 C 0,0 C 75 % 83 % 1033,6 hPa 0,0 l/m 0,0 km/h (0 Bft) O 90 0 min 0,8 C 3,8 C 0,0 km/h (0 Bft)
30.03.2021 03:30 4,8 C 9,9 C 4,0 C 4,4 C 3,7 C 0,0 C 75 % 84 % 1033,6 hPa 0,0 l/m 0,0 km/h (0 Bft) O 90 0 min 0,8 C 3,7 C 0,0 km/h (0 Bft)
30.03.2021 03:35 4,7 C 9,9 C 3,9 C 4,3 C 3,6 C 0,0 C 75 % 84 % 1033,6 hPa 0,0 l/m 0,0 km/h (0 Bft) O 90 0 min 0,7 C 3,6 C 0,0 km/h (0 Bft)
30.03.2021 03:40 4,6 C 9,9 C 3,9 C 4,1 C 3,2 C 0,0 C 76 % 84 % 1033,2 hPa 0,0 l/m 0,0 km/h (0 Bft) O 90 0 min 0,7 C 3,2 C 0,0 km/h (0 Bft)
30.03.2021 03:45 4,4 C 9,9 C 3,7 C 4,0 C 3,1 C 0,0 C 76 % 84 % 1033,2 hPa 0,0 l/m 0,0 km/h (0 Bft) O 90 0 min 0,5 C 3,1 C 0,0 km/h (0 Bft)
30.03.2021 03:50 4,3 C 9,8 C 3,6 C 3,9 C 3,0 C 0,0 C 76 % 84 % 1033,2 hPa 0,0 l/m 0,0 km/h (0 Bft) O 90 0 min 0,5 C 3,0 C 0,0 km/h (0 Bft)
30.03.2021 03:55 4,3 C 9,8 C 3,6 C 3,8 C 2,7 C 0,0 C 76 % 84 % 1033,2 hPa 0,0 l/m 0,0 km/h (0 Bft) O 90 0 min 0,5 C 2,7 C 0,0 km/h (0 Bft)
30.03.2021 04:00 4,0 C 9,8 C 3,5 C 3,5 C 2,5 C 0,0 C 77 % 84 % 1033,4 hPa 0,0 l/m 0,0 km/h (0 Bft) O 90 0 min 0,3 C 2,5 C 0,0 km/h (0 Bft)
30.03.2021 04:05 4,0 C 9,8 C 3,5 C 3,5 C 2,4 C 0,0 C 77 % 85 % 1033,4 hPa 0,0 l/m 0,0 km/h (0 Bft) O 90 0 min 0,3 C 2,4 C 0,0 km/h (0 Bft)
30.03.2021 04:10 3,8 C 9,8 C 3,3 C 3,3 C 2,4 C 0,0 C 77 % 85 % 1033,4 hPa 0,0 l/m 0,0 km/h (0 Bft) O 90 0 min 0,1 C 2,4 C 0,0 km/h (0 Bft)
30.03.2021 04:15 3,7 C 9,8 C 3,3 C 3,3 C 2,4 C 0,0 C 77 % 85 % 1033,4 hPa 0,0 l/m 0,0 km/h (0 Bft) O 90 0 min 0,1 C 2,4 C 0,0 km/h (0 Bft)
30.03.2021 04:20 3,7 C 9,8 C 3,3 C 3,2 C 2,3 C 0,0 C 78 % 85 % 1033,4 hPa 0,0 l/m 0,0 km/h (0 Bft) O 90 0 min 0,2 C 2,3 C 0,0 km/h (0 Bft)
30.03.2021 04:25 3,6 C 9,8 C 3,2 C 3,1 C 2,2 C 0,0 C 78 % 85 % 1033,4 hPa 0,0 l/m 0,0 km/h (0 Bft) O 90 0 min 0,1 C 2,2 C 0,0 km/h (0 Bft)
30.03.2021 04:30 3,5 C 9,8 C 3,1 C 3,0 C 2,1 C 0,0 C 78 % 85 % 1033,4 hPa 0,0 l/m 0,0 km/h (0 Bft) O 90 0 min 0,0 C 2,1 C 0,0 km/h (0 Bft)
30.03.2021 04:35 3,5 C 9,8 C 3,1 C 3,0 C 2,0 C 0,0 C 78 % 85 % 1033,4 hPa 0,0 l/m 0,0 km/h (0 Bft) O 90 0 min 0,0 C 2,0 C 0,0 km/h (0 Bft)
30.03.2021 04:40 3,5 C 9,7 C 3,1 C 3,1 C 2,4 C 0,0 C 79 % 86 % 1033,4 hPa 0,0 l/m 0,0 km/h (0 Bft) O 90 0 min 0,2 C 2,4 C 0,0 km/h (0 Bft)
30.03.2021 04:45 3,4 C 9,7 C 3,0 C 3,1 C 2,5 C 0,0 C 79 % 86 % 1033,4 hPa 0,0 l/m 0,0 km/h (0 Bft) O 90 0 min 0,1 C 2,5 C 0,0 km/h (0 Bft)
30.03.2021 04:50 3,3 C 9,7 C 3,0 C 3,0 C 2,5 C 0,0 C 79 % 86 % 1033,4 hPa 0,0 l/m 0,0 km/h (0 Bft) O 90 0 min 0,0 C 2,5 C 0,0 km/h (0 Bft)
30.03.2021 04:55 3,3 C 9,7 C 3,0 C 3,0 C 2,3 C 0,0 C 79 % 86 % 1033,4 hPa 0,0 l/m 0,0 km/h (0 Bft) O 90 0 min 0,0 C 2,3 C 0,0 km/h (0 Bft)
30.03.2021 05:00 3,2 C 9,7 C 2,9 C 2,9 C 2,2 C 0,0 C 80 % 86 % 1033,4 hPa 0,0 l/m 0,0 km/h (0 Bft) O 90 0 min 0,1 C 2,2 C 0,0 km/h (0 Bft)
30.03.2021 05:05 3,2 C 9,7 C 2,8 C 2,9 C 2,2 C 0,0 C 80 % 86 % 1033,4 hPa 0,0 l/m 0,0 km/h (0 Bft) O 90 0 min 0,1 C 2,2 C 0,0 km/h (0 Bft)
30.03.2021 05:10 3,1 C 9,7 C 2,8 C 2,8 C 2,3 C 0,0 C 80 % 86 % 1033,4 hPa 0,0 l/m 0,0 km/h (0 Bft) O 90 0 min -0,0 C 2,3 C 0,0 km/h (0 Bft)
30.03.2021 05:15 3,1 C 9,7 C 2,8 C 2,7 C 2,0 C 0,0 C 80 % 86 % 1033,4 hPa 0,0 l/m 0,0 km/h (0 Bft) O 90 0 min -0,0 C 2,0 C 0,0 km/h (0 Bft)
30.03.2021 05:20 3,0 C 9,7 C 2,7 C 2,6 C 1,8 C 0,0 C 80 % 86 % 1033,2 hPa 0,0 l/m 0,0 km/h (0 Bft) O 90 0 min -0,1 C 1,8 C 0,0 km/h (0 Bft)
30.03.2021 05:25 2,9 C 9,7 C 2,7 C 2,5 C 1,6 C 0,0 C 81 % 87 % 1033,2 hPa 0,0 l/m 0,0 km/h (0 Bft) O 90 0 min -0,0 C 1,6 C 0,0 km/h (0 Bft)
30.03.2021 05:30 2,8 C 9,7 C 2,6 C 2,3 C 1,4 C 0,0 C 81 % 87 % 1033,2 hPa 0,0 l/m 0,0 km/h (0 Bft) O 90 0 min -0,1 C 1,4 C 0,0 km/h (0 Bft)
30.03.2021 05:35 2,8 C 9,6 C 2,6 C 2,3 C 1,3 C 0,0 C 81 % 87 % 1033,2 hPa 0,0 l/m 0,0 km/h (0 Bft) O 90 0 min -0,1 C 1,3 C 0,0 km/h (0 Bft)
30.03.2021 05:40 2,7 C 9,7 C 2,6 C 2,2 C 1,2 C 0,0 C 81 % 87 % 1033,6 hPa 0,0 l/m 0,0 km/h (0 Bft) O 90 0 min -0,2 C 1,2 C 0,0 km/h (0 Bft)
30.03.2021 05:45 2,7 C 9,6 C 2,5 C 2,2 C 1,2 C 0,0 C 81 % 87 % 1033,6 hPa 0,0 l/m 0,0 km/h (0 Bft) O 90 0 min -0,2 C 1,2 C 0,0 km/h (0 Bft)
30.03.2021 05:50 2,6 C 9,6 C 2,5 C 2,1 C 1,1 C 0,0 C 81 % 87 % 1033,6 hPa 0,0 l/m 0,0 km/h (0 Bft) O 90 0 min -0,3 C 1,1 C 0,0 km/h (0 Bft)
30.03.2021 05:55 2,5 C 9,6 C 2,4 C 2,0 C 1,0 C 0,0 C 81 % 87 % 1033,6 hPa 0,0 l/m 0,0 km/h (0 Bft) O 90 0 min -0,4 C 1,0 C 0,0 km/h (0 Bft)
30.03.2021 06:00 2,5 C 9,7 C 2,3 C 2,0 C 1,0 C 0,0 C 81 % 87 % 1033,9 hPa 0,0 l/m 0,0 km/h (0 Bft) O 90 0 min -0,4 C 1,0 C 0,0 km/h (0 Bft)
30.03.2021 06:05 2,4 C 9,7 C 2,3 C 1,9 C 1,0 C 0,0 C 81 % 87 % 1033,9 hPa 0,0 l/m 0,0 km/h (0 Bft) O 90 0 min -0,5 C 1,0 C 0,0 km/h (0 Bft)
30.03.2021 06:10 2,3 C 9,7 C 2,3 C 1,8 C 0,9 C 0,0 C 82 % 87 % 1033,9 hPa 0,0 l/m 0,0 km/h (0 Bft) O 90 0 min -0,4 C 0,9 C 0,0 km/h (0 Bft)
30.03.2021 06:15 2,3 C 9,7 C 2,2 C 1,8 C 0,8 C 0,0 C 82 % 87 % 1033,9 hPa 0,0 l/m 0,0 km/h (0 Bft) O 90 0 min -0,4 C 0,8 C 0,0 km/h (0 Bft)
30.03.2021 06:20 2,3 C 9,7 C 2,2 C 1,8 C 0,7 C 0,0 C 82 % 87 % 1034,0 hPa 0,0 l/m 0,0 km/h (0 Bft) O 90 0 min -0,4 C 0,7 C 0,0 km/h (0 Bft)
30.03.2021 06:25 2,3 C 9,7 C 2,1 C 1,8 C 0,7 C 0,0 C 82 % 87 % 1034,0 hPa 0,0 l/m 0,0 km/h (0 Bft) O 90 0 min -0,4 C 0,7 C 0,0 km/h (0 Bft)
30.03.2021 06:30 2,2 C 9,7 C 2,1 C 1,7 C 0,7 C 0,0 C 82 % 87 % 1034,0 hPa 0,0 l/m 0,0 km/h (0 Bft) O 90 0 min -0,5 C 0,7 C 0,0 km/h (0 Bft)
30.03.2021 06:35 2,1 C 9,5 C 2,1 C 1,6 C 0,7 C 0,0 C 82 % 88 % 1034,0 hPa 0,0 l/m 0,0 km/h (0 Bft) O 90 0 min -0,6 C 0,7 C 0,0 km/h (0 Bft)
30.03.2021 06:40 2,0 C 9,5 C 1,9 C 1,5 C 0,6 C 0,0 C 82 % 88 % 1034,1 hPa 0,0 l/m 0,0 km/h (0 Bft) O 90 0 min -0,7 C 0,6 C 0,0 km/h (0 Bft)
30.03.2021 06:45 2,0 C 9,5 C 1,9 C 1,5 C 0,6 C 0,0 C 82 % 88 % 1034,1 hPa 0,0 l/m 0,0 km/h (0 Bft) O 90 0 min -0,7 C 0,6 C 0,0 km/h (0 Bft)
30.03.2021 06:50 2,0 C 9,5 C 1,9 C 1,5 C 0,6 C 0,0 C 83 % 88 % 1034,1 hPa 0,0 l/m 0,0 km/h (0 Bft) O 90 0 min -0,6 C 0,6 C 0,0 km/h (0 Bft)
30.03.2021 06:55 1,9 C 9,5 C 1,9 C 1,4 C 0,5 C 0,0 C 83 % 88 % 1034,1 hPa 0,0 l/m 0,0 km/h (0 Bft) O 90 0 min -0,7 C 0,5 C 0,0 km/h (0 Bft)
30.03.2021 07:00 1,9 C 9,5 C 1,9 C 1,5 C 0,6 C 0,0 C 83 % 88 % 1034,4 hPa 0,0 l/m 0,0 km/h (0 Bft) O 90 0 min -0,7 C 0,6 C 0,0 km/h (0 Bft)
30.03.2021 07:05 2,0 C 9,5 C 1,9 C 1,5 C 0,6 C 0,0 C 84 % 88 % 1034,4 hPa 0,0 l/m 0,0 km/h (0 Bft) O 90 0 min -0,4 C 0,6 C 0,0 km/h (0 Bft)
30.03.2021 07:10 2,0 C 9,5 C 1,9 C 1,6 C 0,7 C 0,0 C 84 % 88 % 1034,4 hPa 0,0 l/m 0,0 km/h (0 Bft) O 90 0 min -0,4 C 0,7 C 0,0 km/h (0 Bft)
30.03.2021 07:15 2,0 C 9,5 C 1,9 C 1,6 C 0,8 C 0,0 C 84 % 88 % 1034,4 hPa 0,0 l/m 0,0 km/h (0 Bft) O 90 0 min -0,4 C 0,8 C 0,0 km/h (0 Bft)
30.03.2021 07:20 2,0 C 9,4 C 1,9 C 1,6 C 0,8 C 0,0 C 84 % 88 % 1034,4 hPa 0,0 l/m 0,0 km/h (0 Bft) O 90 0 min -0,4 C 0,8 C 0,0 km/h (0 Bft)
30.03.2021 07:25 1,9 C 9,4 C 1,9 C 1,6 C 0,9 C 0,0 C 84 % 88 % 1034,4 hPa 0,0 l/m 0,0 km/h (0 Bft) O 90 0 min -0,5 C 0,9 C 0,0 km/h (0 Bft)
30.03.2021 07:30 1,8 C 9,4 C 1,9 C 1,5 C 1,0 C 0,0 C 83 % 88 % 1034,4 hPa 0,0 l/m 0,0 km/h (0 Bft) O 90 0 min -0,8 C 1,0 C 0,0 km/h (0 Bft)
30.03.2021 07:35 1,8 C 9,4 C 2,0 C 1,6 C 1,2 C 0,0 C 84 % 88 % 1034,4 hPa 0,0 l/m 0,0 km/h (0 Bft) O 90 0 min -0,6 C 1,2 C 0,0 km/h (0 Bft)
30.03.2021 07:40 1,8 C 9,4 C 2,1 C 1,7 C 1,4 C 0,0 C 84 % 89 % 1034,5 hPa 0,0 l/m 0,0 km/h (0 Bft) O 90 0 min -0,6 C 1,4 C 0,0 km/h (0 Bft)
30.03.2021 07:45 1,9 C 9,4 C 2,1 C 1,9 C 1,8 C 0,0 C 84 % 88 % 1034,5 hPa 0,0 l/m 0,0 km/h (0 Bft) O 90 0 min -0,5 C 1,8 C 0,0 km/h (0 Bft)
30.03.2021 07:50 1,9 C 9,4 C 2,3 C 2,2 C 2,2 C 0,3 C 84 % 89 % 1034,5 hPa 0,0 l/m 0,0 km/h (0 Bft) O 90 0 min -0,5 C 2,2 C 0,0 km/h (0 Bft)
30.03.2021 07:55 2,0 C 9,4 C 2,4 C 2,6 C 2,6 C 0,6 C 85 % 89 % 1034,5 hPa 0,0 l/m 0,0 km/h (0 Bft) O 90 0 min -0,3 C 2,6 C 0,0 km/h (0 Bft)
30.03.2021 08:00 2,1 C 9,3 C 2,7 C 3,9 C 3,9 C 1,8 C 85 % 89 % 1034,6 hPa 0,0 l/m 0,0 km/h (0 Bft) O 90 5 min -0,2 C 3,9 C 0,0 km/h (0 Bft)
30.03.2021 08:05 2,3 C 9,3 C 2,9 C 5,0 C 5,0 C 2,7 C 85 % 89 % 1034,6 hPa 0,0 l/m 0,0 km/h (0 Bft) O 90 5 min 0,0 C 5,0 C 0,0 km/h (0 Bft)
30.03.2021 08:10 2,5 C 9,3 C 3,2 C 6,7 C 6,7 C 4,2 C 86 % 89 % 1034,6 hPa 0,0 l/m 0,0 km/h (0 Bft) O 90 5 min 0,4 C 6,7 C 0,0 km/h (0 Bft)
30.03.2021 08:15 2,7 C 9,2 C 3,5 C 8,2 C 8,2 C 5,5 C 86 % 89 % 1034,6 hPa 0,0 l/m 0,0 km/h (0 Bft) O 90 5 min 0,6 C 8,2 C 0,0 km/h (0 Bft)
30.03.2021 08:20 3,0 C 9,2 C 3,8 C 9,7 C 9,7 C 6,7 C 87 % 89 % 1034,5 hPa 0,0 l/m 0,0 km/h (0 Bft) O 90 5 min 1,1 C 9,7 C 0,0 km/h (0 Bft)
30.03.2021 08:25 3,2 C 9,2 C 3,9 C 10,9 C 10,9 C 7,7 C 87 % 88 % 1034,5 hPa 0,0 l/m 0,0 km/h (0 Bft) O 90 5 min 1,2 C 10,9 C 0,0 km/h (0 Bft)
30.03.2021 08:30 3,6 C 9,1 C 4,3 C 13,0 C 13,0 C 9,4 C 87 % 88 % 1034,5 hPa 0,0 l/m 0,0 km/h (0 Bft) O 90 5 min 1,6 C 13,0 C 0,0 km/h (0 Bft)
30.03.2021 08:35 3,7 C 9,1 C 4,4 C 14,4 C 14,4 C 10,7 C 87 % 88 % 1034,5 hPa 0,0 l/m 0,0 km/h (0 Bft) O 90 5 min 1,7 C 14,4 C 0,0 km/h (0 Bft)
30.03.2021 08:40 4,0 C 9,0 C 4,5 C 15,8 C 15,8 C 11,8 C 87 % 88 % 1034,7 hPa 0,0 l/m 0,0 km/h (0 Bft) O 90 5 min 2,0 C 15,8 C 0,0 km/h (0 Bft)
30.03.2021 08:45 4,2 C 9,0 C 4,7 C 16,5 C 16,5 C 12,3 C 87 % 87 % 1034,7 hPa 0,0 l/m 0,0 km/h (0 Bft) O 90 5 min 2,2 C 16,5 C 0,0 km/h (0 Bft)
30.03.2021 08:50 4,7 C 8,9 C 4,9 C 17,7 C 17,7 C 13,0 C 87 % 87 % 1034,7 hPa 0,0 l/m 0,0 km/h (0 Bft) O 90 5 min 2,7 C 17,7 C 0,0 km/h (0 Bft)
30.03.2021 08:55 4,8 C 8,9 C 5,1 C 18,4 C 18,4 C 13,6 C 87 % 87 % 1034,7 hPa 0,0 l/m 0,0 km/h (0 Bft) O 90 5 min 2,8 C 18,4 C 0,0 km/h (0 Bft)
30.03.2021 09:00 5,5 C 8,9 C 5,4 C 18,7 C 18,7 C 13,2 C 87 % 87 % 1034,6 hPa 0,0 l/m 0,0 km/h (0 Bft) O 90 5 min 3,5 C 18,7 C 0,0 km/h (0 Bft)
30.03.2021 09:05 5,9 C 8,9 C 5,7 C 18,1 C 18,1 C 12,2 C 87 % 87 % 1034,6 hPa 0,0 l/m 0,2 km/h (0 Bft) S 180 5 min 3,9 C 18,1 C 0,0 km/h (0 Bft)
30.03.2021 09:10 6,9 C 8,9 C 6,1 C 18,0 C 18,0 C 11,1 C 87 % 87 % 1034,6 hPa 0,0 l/m 0,2 km/h (0 Bft) S 180 5 min 4,9 C 18,0 C 0,0 km/h (0 Bft)
30.03.2021 09:15 7,3 C 8,9 C 6,5 C 18,2 C 18,2 C 10,9 C 86 % 86 % 1034,6 hPa 0,0 l/m 0,2 km/h (0 Bft) S 180 5 min 5,1 C 18,2 C 0,0 km/h (0 Bft)
30.03.2021 09:20 8,0 C 8,8 C 7,1 C 18,3 C 18,3 C 10,3 C 84 % 85 % 1034,7 hPa 0,0 l/m 0,2 km/h (0 Bft) S 180 5 min 5,5 C 18,3 C 2,4 km/h (1 Bft)
30.03.2021 09:25 8,4 C 8,8 C 7,4 C 18,3 C 18,3 C 9,9 C 83 % 84 % 1034,7 hPa 0,0 l/m 0,5 km/h (0 Bft) SO 135 5 min 5,7 C 18,3 C 2,4 km/h (1 Bft)
30.03.2021 09:30 9,1 C 8,8 C 7,9 C 17,7 C 17,7 C 8,6 C 81 % 83 % 1034,7 hPa 0,0 l/m 1,0 km/h (0 Bft) SO 135 5 min 6,0 C 17,7 C 3,4 km/h (1 Bft)
30.03.2021 09:35 9,5 C 8,8 C 8,1 C 17,4 C 17,4 C 7,9 C 79 % 82 % 1034,7 hPa 0,0 l/m 0,8 km/h (0 Bft) O-SO 112 5 min 6,0 C 17,4 C 1,9 km/h (1 Bft)
30.03.2021 09:40 10,0 C 8,8 C 8,6 C 17,4 C 17,4 C 7,4 C 77 % 81 % 1034,6 hPa 0,0 l/m 0,8 km/h (0 Bft) SO 135 5 min 6,2 C 17,4 C 3,5 km/h (1 Bft)
30.03.2021 09:45 10,3 C 8,8 C 9,1 C 17,2 C 17,2 C 6,9 C 76 % 81 % 1034,6 hPa 0,0 l/m 0,8 km/h (0 Bft) S 180 5 min 6,3 C 17,2 C 2,3 km/h (1 Bft)
30.03.2021 09:50 10,8 C 8,7 C 9,8 C 16,0 C 16,0 C 5,2 C 74 % 79 % 1034,6 hPa 0,0 l/m 1,1 km/h (1 Bft) S-SO 157 5 min 6,4 C 16,0 C 4,2 km/h (1 Bft)
30.03.2021 09:55 11,3 C 8,7 C 10,2 C 16,3 C 16,3 C 5,0 C 73 % 77 % 1034,6 hPa 0,0 l/m 1,1 km/h (1 Bft) S-SO 157 5 min 6,6 C 16,3 C 2,3 km/h (1 Bft)
30.03.2021 10:00 11,7 C 8,7 C 10,8 C 17,2 C 17,2 C 5,5 C 71 % 76 % 1034,5 hPa 0,0 l/m 1,3 km/h (1 Bft) S 180 5 min 6,6 C 17,2 C 0,0 km/h (0 Bft)
30.03.2021 10:05 12,0 C 8,7 C 11,1 C 18,3 C 18,3 C 6,3 C 70 % 75 % 1034,5 hPa 0,0 l/m 1,1 km/h (1 Bft) SO 135 5 min 6,7 C 18,3 C 0,0 km/h (0 Bft)
30.03.2021 10:10 12,4 C 8,7 C 12,0 C 18,7 C 18,7 C 6,3 C 69 % 74 % 1034,5 hPa 0,0 l/m 0,8 km/h (0 Bft) SW 225 5 min 6,9 C 18,7 C 1,6 km/h (1 Bft)
30.03.2021 10:15 12,8 C 8,7 C 13,0 C 19,3 C 19,3 C 6,5 C 68 % 73 % 1034,5 hPa 0,0 l/m 1,0 km/h (0 Bft) S-SW 202 5 min 7,0 C 19,3 C 2,4 km/h (1 Bft)
30.03.2021 10:20 13,2 C 8,7 C 13,3 C 18,4 C 18,4 C 5,2 C 66 % 69 % 1034,6 hPa 0,0 l/m 2,3 km/h (1 Bft) S-SW 202 5 min 7,0 C 18,4 C 6,1 km/h (2 Bft)
30.03.2021 10:25 13,5 C 8,7 C 13,6 C 18,1 C 18,1 C 4,6 C 62 % 65 % 1034,6 hPa 0,0 l/m 3,4 km/h (1 Bft) SW 225 5 min 6,4 C 18,1 C 6,6 km/h (2 Bft)
30.03.2021 10:30 13,6 C 8,7 C 14,3 C 18,2 C 18,2 C 4,6 C 60 % 63 % 1034,6 hPa 0,0 l/m 4,7 km/h (1 Bft) S-SW 202 5 min 6,0 C 18,2 C 7,1 km/h (2 Bft)
30.03.2021 10:35 13,9 C 8,7 C 15,3 C 18,4 C 18,4 C 4,5 C 60 % 61 % 1034,6 hPa 0,0 l/m 4,0 km/h (1 Bft) S 180 5 min 6,3 C 18,4 C 3,1 km/h (1 Bft)
30.03.2021 10:40 14,2 C 8,8 C 16,2 C 18,1 C 18,1 C 3,9 C 58 % 56 % 1034,8 hPa 0,0 l/m 2,9 km/h (1 Bft) W 270 5 min 6,1 C 18,1 C 3,9 km/h (1 Bft)
30.03.2021 10:45 14,3 C 8,8 C 16,8 C 18,1 C 18,1 C 3,8 C 58 % 55 % 1034,8 hPa 0,0 l/m 3,4 km/h (1 Bft) SW 225 5 min 6,2 C 18,1 C 7,6 km/h (2 Bft)
30.03.2021 10:50 14,5 C 8,8 C 17,4 C 17,7 C 17,7 C 3,2 C 57 % 52 % 1034,8 hPa 0,0 l/m 3,7 km/h (1 Bft) SW 225 0 min 6,1 C 17,7 C 7,7 km/h (2 Bft)
30.03.2021 10:55 14,6 C 8,8 C 17,4 C 17,6 C 17,6 C 3,0 C 57 % 52 % 1034,8 hPa 0,0 l/m 3,2 km/h (1 Bft) SW 225 0 min 6,2 C 17,6 C 4,2 km/h (1 Bft)
30.03.2021 11:00 15,0 C 8,8 C 17,6 C 17,3 C 17,3 C 2,3 C 56 % 51 % 1035,0 hPa 0,0 l/m 2,1 km/h (1 Bft) SW 225 0 min 6,3 C 17,3 C 3,5 km/h (1 Bft)
30.03.2021 11:05 15,2 C 8,8 C 17,7 C 17,3 C 17,3 C 2,1 C 56 % 51 % 1035,0 hPa 0,0 l/m 2,3 km/h (1 Bft) SW 225 0 min 6,5 C 17,3 C 7,2 km/h (2 Bft)
30.03.2021 11:10 15,3 C 8,8 C 17,9 C 17,6 C 17,6 C 2,3 C 56 % 50 % 1035,0 hPa 0,0 l/m 1,9 km/h (1 Bft) S 180 0 min 6,6 C 17,6 C 0,0 km/h (0 Bft)
30.03.2021 11:15 15,5 C 8,8 C 17,9 C 17,9 C 17,9 C 2,4 C 55 % 50 % 1035,0 hPa 0,0 l/m 1,6 km/h (1 Bft) S 180 0 min 6,5 C 17,9 C 4,0 km/h (1 Bft)
30.03.2021 11:20 15,7 C 8,8 C 18,3 C 17,8 C 17,8 C 2,1 C 55 % 50 % 1035,1 hPa 0,0 l/m 1,8 km/h (1 Bft) O-NO 67 0 min 6,7 C 17,8 C 1,9 km/h (1 Bft)
30.03.2021 11:25 15,8 C 8,9 C 18,7 C 18,4 C 18,4 C 2,6 C 55 % 49 % 1035,1 hPa 0,0 l/m 1,8 km/h (1 Bft) S 180 0 min 6,8 C 18,4 C 1,8 km/h (1 Bft)
30.03.2021 11:30 16,0 C 8,9 C 20,2 C 18,2 C 18,2 C 2,2 C 53 % 46 % 1035,1 hPa 0,0 l/m 1,6 km/h (1 Bft) SW 225 0 min 6,4 C 18,2 C 2,3 km/h (1 Bft)
30.03.2021 11:35 16,3 C 8,8 C 20,7 C 18,2 C 18,2 C 1,9 C 54 % 45 % 1035,1 hPa 0,0 l/m 1,8 km/h (1 Bft) O-SO 112 0 min 7,0 C 18,2 C 1,6 km/h (1 Bft)
30.03.2021 11:40 16,4 C 8,8 C 21,5 C 18,1 C 18,1 C 1,7 C 53 % 44 % 1034,8 hPa 0,0 l/m 1,9 km/h (1 Bft) SO 135 0 min 6,8 C 18,1 C 0,0 km/h (0 Bft)
30.03.2021 11:45 16,5 C 8,8 C 22,1 C 18,6 C 18,6 C 2,1 C 53 % 42 % 1034,8 hPa 0,0 l/m 1,4 km/h (1 Bft) W-SW 247 0 min 6,9 C 18,6 C 0,0 km/h (0 Bft)
30.03.2021 11:50 16,6 C 8,9 C 22,8 C 19,0 C 19,0 C 2,4 C 52 % 39 % 1034,8 hPa 0,0 l/m 1,3 km/h (1 Bft) S-SW 202 0 min 6,7 C 19,0 C 1,6 km/h (1 Bft)
30.03.2021 11:55 16,7 C 8,9 C 23,4 C 19,6 C 19,6 C 2,9 C 52 % 39 % 1034,8 hPa 0,0 l/m 1,4 km/h (1 Bft) S 180 0 min 6,8 C 19,6 C 4,5 km/h (1 Bft)
30.03.2021 12:00 17,0 C 8,9 C 23,9 C 20,0 C 20,0 C 3,0 C 51 % 38 % 1034,3 hPa 0,0 l/m 1,3 km/h (1 Bft) SO 135 0 min 6,8 C 20,0 C 3,4 km/h (1 Bft)
30.03.2021 12:05 17,1 C 8,9 C 24,1 C 20,1 C 20,1 C 3,0 C 51 % 37 % 1034,3 hPa 0,0 l/m 1,9 km/h (1 Bft) S-SO 157 0 min 6,9 C 20,1 C 3,5 km/h (1 Bft)
30.03.2021 12:10 17,2 C 8,9 C 24,6 C 20,0 C 20,0 C 2,8 C 49 % 33 % 1034,3 hPa 0,0 l/m 2,6 km/h (1 Bft) SW 225 0 min 6,4 C 20,0 C 0,0 km/h (0 Bft)
30.03.2021 12:15 17,3 C 9,0 C 25,0 C 20,2 C 20,2 C 2,9 C 48 % 33 % 1034,3 hPa 0,0 l/m 3,1 km/h (1 Bft) S-SW 202 0 min 6,2 C 20,2 C 3,2 km/h (1 Bft)
30.03.2021 12:20 17,4 C 9,0 C 25,3 C 20,9 C 20,9 C 3,5 C 47 % 33 % 1034,3 hPa 0,0 l/m 4,0 km/h (1 Bft) SW 225 5 min 6,0 C 20,9 C 8,2 km/h (2 Bft)
30.03.2021 12:25 17,5 C 9,0 C 25,2 C 21,4 C 21,4 C 3,9 C 47 % 32 % 1034,3 hPa 0,0 l/m 4,7 km/h (1 Bft) SW 225 5 min 6,1 C 21,4 C 6,1 km/h (2 Bft)
30.03.2021 12:30 17,6 C 9,0 C 25,3 C 22,0 C 22,0 C 4,4 C 47 % 32 % 1034,3 hPa 0,0 l/m 5,0 km/h (1 Bft) W-SW 247 5 min 6,2 C 22,0 C 4,0 km/h (1 Bft)
30.03.2021 12:35 17,8 C 9,0 C 25,4 C 22,2 C 22,2 C 4,4 C 47 % 32 % 1034,3 hPa 0,0 l/m 4,7 km/h (1 Bft) S-SW 202 5 min 6,3 C 22,2 C 5,3 km/h (1 Bft)
30.03.2021 12:40 18,0 C 9,1 C 25,8 C 23,1 C 23,1 C 5,1 C 47 % 32 % 1034,2 hPa 0,0 l/m 4,0 km/h (1 Bft) SW 225 5 min 6,5 C 23,1 C 5,5 km/h (1 Bft)
30.03.2021 12:45 18,3 C 9,1 C 25,4 C 23,5 C 23,5 C 5,2 C 46 % 32 % 1034,2 hPa 0,0 l/m 4,3 km/h (1 Bft) SW 225 5 min 6,5 C 23,5 C 2,7 km/h (1 Bft)
30.03.2021 12:50 18,4 C 9,1 C 25,3 C 23,9 C 23,9 C 5,5 C 45 % 31 % 1034,2 hPa 0,0 l/m 4,3 km/h (1 Bft) S 180 5 min 6,3 C 23,9 C 4,8 km/h (1 Bft)
30.03.2021 12:55 18,7 C 9,1 C 25,0 C 24,1 C 24,1 C 5,4 C 45 % 31 % 1034,2 hPa 0,0 l/m 4,3 km/h (1 Bft) SW 225 5 min 6,5 C 24,1 C 6,4 km/h (2 Bft)
30.03.2021 13:00 18,9 C 9,2 C 24,9 C 24,2 C 24,2 C 5,3 C 44 % 32 % 1033,9 hPa 0,0 l/m 4,8 km/h (1 Bft) SW 225 5 min 6,4 C 24,2 C 5,8 km/h (2 Bft)
30.03.2021 13:05 18,9 C 9,2 C 24,6 C 24,3 C 24,3 C 5,4 C 45 % 32 % 1033,9 hPa 0,0 l/m 5,0 km/h (1 Bft) SW 225 5 min 6,7 C 24,3 C 5,0 km/h (1 Bft)
30.03.2021 13:10 18,9 C 9,2 C 24,6 C 24,3 C 24,3 C 5,4 C 45 % 32 % 1033,9 hPa 0,0 l/m 5,0 km/h (1 Bft) SW 225 5 min 6,7 C 24,3 C 9,0 km/h (2 Bft)
30.03.2021 13:15 18,9 C 9,2 C 24,6 C 24,3 C 24,3 C 5,4 C 45 % 32 % 1033,9 hPa 0,0 l/m 5,0 km/h (1 Bft) SW 225 5 min 6,7 C 24,3 C 5,0 km/h (1 Bft)
30.03.2021 13:20 19,2 C 9,3 C 23,5 C 24,2 C 24,2 C 5,0 C 43 % 32 % 1033,8 hPa 0,0 l/m 6,0 km/h (2 Bft) SO 135 5 min 6,3 C 24,2 C 9,2 km/h (2 Bft)
30.03.2021 13:25 19,4 C 9,3 C 23,3 C 24,5 C 24,5 C 5,1 C 42 % 33 % 1033,8 hPa 0,0 l/m 4,8 km/h (1 Bft) W-SW 247 5 min 6,2 C 24,5 C 5,6 km/h (1 Bft)
30.03.2021 13:30 19,5 C 9,3 C 23,1 C 24,2 C 24,2 C 4,7 C 41 % 32 % 1033,8 hPa 0,0 l/m 6,1 km/h (2 Bft) SW 225 5 min 5,9 C 24,2 C 13,0 km/h (3 Bft)
30.03.2021 13:35 19,5 C 9,3 C 23,0 C 23,9 C 23,9 C 4,4 C 41 % 32 % 1033,8 hPa 0,0 l/m 7,2 km/h (2 Bft) SW 225 5 min 5,9 C 23,9 C 7,2 km/h (2 Bft)
30.03.2021 13:40 19,7 C 9,4 C 23,4 C 24,5 C 24,5 C 4,8 C 41 % 33 % 1033,5 hPa 0,0 l/m 5,1 km/h (1 Bft) SW 225 5 min 6,1 C 24,5 C 8,7 km/h (2 Bft)
30.03.2021 13:45 19,8 C 9,4 C 23,9 C 24,8 C 24,8 C 5,0 C 41 % 32 % 1033,5 hPa 0,0 l/m 4,8 km/h (1 Bft) SW 225 5 min 6,2 C 24,8 C 9,8 km/h (2 Bft)
30.03.2021 13:50 19,8 C 9,4 C 24,4 C 24,9 C 24,9 C 5,1 C 39 % 31 % 1033,5 hPa 0,0 l/m 5,3 km/h (1 Bft) S-SO 157 5 min 5,4 C 24,9 C 5,5 km/h (1 Bft)
30.03.2021 13:55 19,9 C 9,3 C 24,2 C 24,9 C 24,9 C 5,0 C 39 % 32 % 1033,5 hPa 0,0 l/m 5,3 km/h (1 Bft) SW 225 5 min 5,5 C 24,9 C 5,1 km/h (1 Bft)
30.03.2021 14:00 20,1 C 9,5 C 24,3 C 25,4 C 25,4 C 5,3 C 40 % 31 % 1033,1 hPa 0,0 l/m 4,3 km/h (1 Bft) S 180 5 min 6,1 C 25,4 C 6,0 km/h (2 Bft)
30.03.2021 14:05 20,3 C 9,5 C 24,3 C 25,6 C 25,6 C 5,3 C 38 % 30 % 1033,1 hPa 0,0 l/m 4,3 km/h (1 Bft) W-SW 247 5 min 5,5 C 25,6 C 8,7 km/h (2 Bft)
30.03.2021 14:10 20,2 C 9,5 C 24,0 C 25,2 C 25,2 C 5,0 C 37 % 31 % 1033,1 hPa 0,0 l/m 5,8 km/h (2 Bft) W-SW 247 5 min 5,0 C 25,2 C 4,3 km/h (1 Bft)
30.03.2021 14:15 20,4 C 9,5 C 23,7 C 25,2 C 25,2 C 4,8 C 38 % 32 % 1033,1 hPa 0,0 l/m 5,5 km/h (1 Bft) S 180 5 min 5,6 C 25,2 C 5,0 km/h (1 Bft)
30.03.2021 14:20 20,6 C 9,5 C 22,7 C 25,7 C 25,7 C 5,1 C 38 % 32 % 1033,3 hPa 0,0 l/m 4,7 km/h (1 Bft) S-SW 202 5 min 5,8 C 25,7 C 6,9 km/h (2 Bft)
30.03.2021 14:25 20,7 C 9,5 C 22,2 C 25,8 C 25,8 C 5,1 C 37 % 32 % 1033,3 hPa 0,0 l/m 4,5 km/h (1 Bft) SW 225 5 min 5,5 C 25,8 C 8,0 km/h (2 Bft)
30.03.2021 14:30 20,8 C 9,6 C 21,8 C 25,8 C 25,8 C 5,0 C 37 % 33 % 1033,3 hPa 0,0 l/m 4,5 km/h (1 Bft) W-SW 247 5 min 5,6 C 25,8 C 4,0 km/h (1 Bft)
30.03.2021 14:35 21,1 C 9,6 C 21,6 C 25,9 C 25,9 C 4,8 C 37 % 34 % 1033,3 hPa 0,0 l/m 4,7 km/h (1 Bft) W-SW 247 5 min 5,8 C 25,9 C 6,0 km/h (2 Bft)
30.03.2021 14:40 21,2 C 9,6 C 21,5 C 26,3 C 26,3 C 5,1 C 37 % 35 % 1033,3 hPa 0,0 l/m 3,7 km/h (1 Bft) SO 135 5 min 5,9 C 26,3 C 0,0 km/h (0 Bft)
30.03.2021 14:45 21,5 C 9,6 C 21,5 C 26,3 C 26,3 C 4,8 C 38 % 36 % 1033,3 hPa 0,0 l/m 3,9 km/h (1 Bft) SW 225 5 min 6,6 C 26,3 C 2,1 km/h (1 Bft)
30.03.2021 14:50 21,5 C 9,7 C 21,3 C 26,3 C 26,3 C 4,8 C 38 % 37 % 1033,3 hPa 0,0 l/m 4,5 km/h (1 Bft) S 180 5 min 6,6 C 26,3 C 5,1 km/h (1 Bft)
30.03.2021 14:55 21,5 C 9,7 C 21,2 C 26,4 C 26,4 C 4,9 C 37 % 37 % 1033,3 hPa 0,0 l/m 4,3 km/h (1 Bft) S 180 5 min 6,2 C 26,4 C 5,6 km/h (1 Bft)
30.03.2021 15:00 21,7 C 9,7 C 21,1 C 26,4 C 26,4 C 4,7 C 35 % 36 % 1032,9 hPa 0,0 l/m 4,3 km/h (1 Bft) S-SW 202 5 min 5,6 C 26,4 C 6,6 km/h (2 Bft)
30.03.2021 15:05 21,8 C 9,8 C 21,0 C 26,5 C 26,5 C 4,7 C 35 % 36 % 1032,9 hPa 0,0 l/m 4,8 km/h (1 Bft) W-SW 247 5 min 5,7 C 26,5 C 3,5 km/h (1 Bft)
30.03.2021 15:10 22,1 C 9,8 C 21,0 C 27,1 C 27,1 C 5,0 C 34 % 36 % 1032,9 hPa 0,0 l/m 3,7 km/h (1 Bft) SW 225 5 min 5,5 C 27,1 C 6,3 km/h (2 Bft)
30.03.2021 15:15 22,3 C 9,8 C 21,1 C 27,4 C 27,4 C 5,1 C 34 % 35 % 1032,9 hPa 0,0 l/m 3,2 km/h (1 Bft) S-SW 202 5 min 5,7 C 27,4 C 2,4 km/h (1 Bft)
30.03.2021 15:20 22,4 C 9,8 C 21,0 C 27,3 C 27,3 C 4,9 C 32 % 34 % 1032,7 hPa 0,0 l/m 4,5 km/h (1 Bft) S 180 5 min 4,9 C 27,3 C 6,0 km/h (2 Bft)
30.03.2021 15:25 22,3 C 9,8 C 21,0 C 27,0 C 27,0 C 4,7 C 32 % 34 % 1032,7 hPa 0,0 l/m 5,1 km/h (1 Bft) S 180 5 min 4,8 C 27,0 C 7,7 km/h (2 Bft)
30.03.2021 15:30 22,3 C 9,9 C 20,8 C 26,6 C 26,6 C 4,3 C 32 % 34 % 1032,7 hPa 0,0 l/m 5,3 km/h (1 Bft) SW 225 5 min 4,8 C 26,6 C 8,2 km/h (2 Bft)
30.03.2021 15:35 22,4 C 10,0 C 20,9 C 26,6 C 26,6 C 4,2 C 32 % 34 % 1032,7 hPa 0,0 l/m 5,1 km/h (1 Bft) S-SW 202 5 min 4,9 C 26,6 C 6,4 km/h (2 Bft)
30.03.2021 15:40 22,4 C 10,0 C 20,9 C 26,6 C 26,6 C 4,2 C 31 % 33 % 1032,4 hPa 0,0 l/m 5,6 km/h (1 Bft) SW 225 5 min 4,4 C 26,6 C 9,0 km/h (2 Bft)
30.03.2021 15:45 22,3 C 10,0 C 20,8 C 26,3 C 26,3 C 4,0 C 30 % 34 % 1032,4 hPa 0,0 l/m 5,6 km/h (1 Bft) NW 315 5 min 3,9 C 26,3 C 2,6 km/h (1 Bft)
30.03.2021 15:50 22,5 C 10,0 C 20,8 C 26,6 C 26,6 C 4,1 C 30 % 33 % 1032,4 hPa 0,0 l/m 4,8 km/h (1 Bft) W 270 5 min 4,1 C 26,6 C 6,8 km/h (2 Bft)
30.03.2021 15:55 22,5 C 10,0 C 20,8 C 26,6 C 26,6 C 4,1 C 30 % 33 % 1032,4 hPa 0,0 l/m 4,7 km/h (1 Bft) SW 225 5 min 4,1 C 26,6 C 8,9 km/h (2 Bft)
30.03.2021 16:00 22,3 C 10,1 C 20,7 C 26,3 C 26,3 C 4,0 C 30 % 33 % 1032,1 hPa 0,0 l/m 5,6 km/h (1 Bft) SW 225 5 min 3,9 C 26,3 C 4,3 km/h (1 Bft)
30.03.2021 16:05 22,3 C 10,1 C 20,7 C 26,3 C 26,3 C 4,0 C 31 % 33 % 1032,1 hPa 0,0 l/m 5,6 km/h (1 Bft) SW 225 5 min 4,4 C 26,3 C 6,3 km/h (2 Bft)
30.03.2021 16:10 22,2 C 10,1 C 20,7 C 26,1 C 26,1 C 3,9 C 30 % 34 % 1032,1 hPa 0,0 l/m 5,0 km/h (1 Bft) S 180 5 min 3,8 C 26,1 C 3,1 km/h (1 Bft)
30.03.2021 16:15 22,3 C 10,2 C 20,7 C 26,5 C 26,5 C 4,2 C 31 % 34 % 1032,1 hPa 0,0 l/m 4,8 km/h (1 Bft) W-SW 247 5 min 4,4 C 26,5 C 7,1 km/h (2 Bft)
30.03.2021 16:20 22,6 C 10,2 C 20,7 C 26,8 C 26,8 C 4,2 C 32 % 35 % 1032,1 hPa 0,0 l/m 3,7 km/h (1 Bft) SW 225 5 min 5,1 C 26,8 C 4,3 km/h (1 Bft)
30.03.2021 16:25 22,7 C 10,2 C 20,7 C 27,0 C 27,0 C 4,3 C 31 % 34 % 1032,1 hPa 0,0 l/m 3,9 km/h (1 Bft) NW 315 5 min 4,7 C 27,0 C 5,1 km/h (1 Bft)
30.03.2021 16:30 22,6 C 10,2 C 20,8 C 27,3 C 27,3 C 4,7 C 32 % 36 % 1032,1 hPa 0,0 l/m 3,2 km/h (1 Bft) SW 225 5 min 5,1 C 27,3 C 4,7 km/h (1 Bft)
30.03.2021 16:35 22,6 C 10,2 C 20,8 C 27,4 C 27,4 C 4,8 C 32 % 36 % 1032,1 hPa 0,0 l/m 3,1 km/h (1 Bft) S 180 5 min 5,1 C 27,4 C 5,6 km/h (1 Bft)
30.03.2021 16:40 22,6 C 10,3 C 20,8 C 26,9 C 26,9 C 4,3 C 32 % 34 % 1032,0 hPa 0,0 l/m 4,3 km/h (1 Bft) SW 225 5 min 5,1 C 26,9 C 2,9 km/h (1 Bft)
30.03.2021 16:45 22,7 C 10,3 C 20,8 C 26,7 C 26,7 C 4,0 C 31 % 34 % 1032,0 hPa 0,0 l/m 4,5 km/h (1 Bft) S 180 5 min 4,7 C 26,7 C 5,6 km/h (1 Bft)
30.03.2021 16:50 22,4 C 10,3 C 20,7 C 26,0 C 26,0 C 3,6 C 31 % 34 % 1032,0 hPa 0,0 l/m 4,8 km/h (1 Bft) S-SW 202 5 min 4,4 C 26,0 C 5,5 km/h (1 Bft)
30.03.2021 16:55 22,4 C 10,3 C 20,8 C 25,5 C 25,5 C 3,1 C 31 % 34 % 1032,0 hPa 0,0 l/m 5,1 km/h (1 Bft) S-SO 157 0 min 4,4 C 25,5 C 4,7 km/h (1 Bft)
30.03.2021 17:00 22,5 C 10,4 C 20,8 C 25,4 C 25,4 C 2,9 C 31 % 35 % 1032,1 hPa 0,0 l/m 4,7 km/h (1 Bft) SW 225 0 min 4,5 C 25,4 C 4,2 km/h (1 Bft)
30.03.2021 17:05 22,6 C 10,4 C 20,8 C 25,1 C 25,1 C 2,5 C 31 % 34 % 1032,1 hPa 0,0 l/m 4,7 km/h (1 Bft) S-SW 202 0 min 4,6 C 25,1 C 9,5 km/h (2 Bft)
30.03.2021 17:10 22,5 C 10,4 C 20,7 C 24,6 C 24,6 C 2,1 C 30 % 34 % 1032,1 hPa 0,0 l/m 5,0 km/h (1 Bft) S-SW 202 0 min 4,1 C 24,6 C 2,9 km/h (1 Bft)
30.03.2021 17:15 22,4 C 10,4 C 20,7 C 24,5 C 24,5 C 2,1 C 31 % 34 % 1032,1 hPa 0,0 l/m 3,9 km/h (1 Bft) NW 315 0 min 4,4 C 24,5 C 2,6 km/h (1 Bft)
30.03.2021 17:20 22,5 C 10,4 C 20,7 C 24,0 C 24,0 C 1,5 C 30 % 33 % 1032,1 hPa 0,0 l/m 3,4 km/h (1 Bft) SW 225 0 min 4,1 C 24,0 C 7,9 km/h (2 Bft)
30.03.2021 17:25 22,3 C 10,5 C 20,6 C 23,7 C 23,7 C 1,4 C 29 % 32 % 1032,1 hPa 0,0 l/m 4,2 km/h (1 Bft) SW 225 0 min 3,4 C 23,7 C 2,7 km/h (1 Bft)
30.03.2021 17:30 22,3 C 10,5 C 20,7 C 23,8 C 23,8 C 1,5 C 29 % 32 % 1032,1 hPa 0,0 l/m 4,2 km/h (1 Bft) SW 225 0 min 3,4 C 23,8 C 1,9 km/h (1 Bft)
30.03.2021 17:35 22,4 C 10,5 C 21,1 C 23,9 C 23,9 C 1,5 C 29 % 32 % 1032,1 hPa 0,0 l/m 3,5 km/h (1 Bft) SW 225 0 min 3,5 C 23,9 C 6,1 km/h (2 Bft)
30.03.2021 17:40 22,4 C 10,5 C 21,0 C 24,2 C 24,2 C 1,8 C 29 % 33 % 1031,6 hPa 0,0 l/m 3,4 km/h (1 Bft) S-SW 202 0 min 3,5 C 24,2 C 3,7 km/h (1 Bft)
30.03.2021 17:45 22,5 C 10,5 C 20,8 C 24,0 C 24,0 C 1,5 C 29 % 33 % 1031,6 hPa 0,0 l/m 2,9 km/h (1 Bft) S 180 0 min 3,6 C 24,0 C 4,5 km/h (1 Bft)
30.03.2021 17:50 22,4 C 10,6 C 20,5 C 24,1 C 24,1 C 1,7 C 28 % 32 % 1031,6 hPa 0,0 l/m 3,7 km/h (1 Bft) SW 225 0 min 3,0 C 24,1 C 4,5 km/h (1 Bft)
30.03.2021 17:55 22,2 C 10,6 C 20,4 C 23,9 C 23,9 C 1,7 C 27 % 32 % 1031,6 hPa 0,0 l/m 4,2 km/h (1 Bft) SW 225 0 min 2,3 C 23,9 C 2,7 km/h (1 Bft)
30.03.2021 18:00 22,0 C 10,6 C 20,3 C 23,4 C 23,4 C 1,4 C 26 % 31 % 1031,6 hPa 0,0 l/m 3,9 km/h (1 Bft) W-SW 247 0 min 1,6 C 23,4 C 4,0 km/h (1 Bft)
30.03.2021 18:05 22,0 C 10,6 C 20,3 C 23,4 C 23,4 C 1,4 C 26 % 31 % 1031,6 hPa 0,0 l/m 4,0 km/h (1 Bft) S-SO 157 0 min 1,6 C 23,4 C 5,8 km/h (2 Bft)
30.03.2021 18:10 22,1 C 10,7 C 20,0 C 23,0 C 23,0 C 0,9 C 28 % 32 % 1031,6 hPa 0,0 l/m 3,4 km/h (1 Bft) S 180 0 min 2,7 C 23,0 C 3,1 km/h (1 Bft)
30.03.2021 18:15 22,1 C 10,7 C 19,9 C 23,0 C 23,0 C 0,9 C 28 % 32 % 1031,6 hPa 0,0 l/m 2,9 km/h (1 Bft) W-SW 247 0 min 2,7 C 23,0 C 0,0 km/h (0 Bft)
30.03.2021 18:20 22,1 C 10,7 C 19,7 C 22,8 C 22,8 C 0,7 C 28 % 32 % 1031,4 hPa 0,0 l/m 2,3 km/h (1 Bft) W-SW 247 0 min 2,7 C 22,8 C 3,1 km/h (1 Bft)
30.03.2021 18:25 21,9 C 10,7 C 19,5 C 22,7 C 22,7 C 0,8 C 28 % 32 % 1031,4 hPa 0,0 l/m 1,6 km/h (1 Bft) S 180 0 min 2,6 C 22,7 C 0,0 km/h (0 Bft)
30.03.2021 18:30 21,9 C 10,7 C 19,3 C 22,9 C 22,9 C 1,0 C 28 % 34 % 1031,4 hPa 0,0 l/m 0,6 km/h (0 Bft) SW 225 0 min 2,6 C 22,9 C 0,0 km/h (0 Bft)
30.03.2021 18:35 22,0 C 10,7 C 19,1 C 22,9 C 22,9 C 0,9 C 29 % 33 % 1031,4 hPa 0,0 l/m 0,3 km/h (0 Bft) NW 315 0 min 3,1 C 22,9 C 0,0 km/h (0 Bft)
30.03.2021 18:40 21,8 C 10,7 C 19,0 C 22,8 C 22,8 C 1,0 C 28 % 34 % 1031,6 hPa 0,0 l/m 0,8 km/h (0 Bft) W-SW 247 0 min 2,5 C 22,8 C 3,2 km/h (1 Bft)
30.03.2021 18:45 21,9 C 10,8 C 18,7 C 22,4 C 22,4 C 0,5 C 28 % 34 % 1031,6 hPa 0,0 l/m 1,0 km/h (0 Bft) N 360 0 min 2,6 C 22,4 C 1,8 km/h (1 Bft)
30.03.2021 18:50 21,6 C 10,8 C 18,5 C 22,1 C 22,1 C 0,5 C 28 % 34 % 1031,6 hPa 0,0 l/m 0,8 km/h (0 Bft) S-SW 202 0 min 2,3 C 22,1 C 2,6 km/h (1 Bft)
30.03.2021 18:55 21,5 C 10,8 C 18,3 C 21,8 C 21,8 C 0,3 C 28 % 35 % 1031,6 hPa 0,0 l/m 0,3 km/h (0 Bft) S-SW 202 0 min 2,2 C 21,8 C 0,0 km/h (0 Bft)
30.03.2021 19:00 21,3 C 10,8 C 18,0 C 21,6 C 21,6 C 0,3 C 29 % 36 % 1031,5 hPa 0,0 l/m 0,3 km/h (0 Bft) S-SW 202 0 min 2,5 C 21,6 C 0,0 km/h (0 Bft)
30.03.2021 19:05 21,2 C 10,9 C 17,7 C 21,4 C 21,4 C 0,2 C 29 % 38 % 1031,5 hPa 0,0 l/m 0,2 km/h (0 Bft) S-SW 202 0 min 2,5 C 21,4 C 0,0 km/h (0 Bft)
30.03.2021 19:10 21,1 C 10,9 C 17,1 C 21,0 C 20,8 C 0,0 C 30 % 40 % 1031,5 hPa 0,0 l/m 0,0 km/h (0 Bft) S-SW 202 0 min 2,8 C 20,8 C 0,0 km/h (0 Bft)
30.03.2021 19:15 21,0 C 10,9 C 16,8 C 20,8 C 20,3 C 0,0 C 30 % 39 % 1031,5 hPa 0,0 l/m 0,0 km/h (0 Bft) S-SW 202 0 min 2,8 C 20,3 C 0,0 km/h (0 Bft)
30.03.2021 19:20 20,6 C 10,9 C 16,3 C 20,3 C 19,6 C 0,0 C 31 % 43 % 1031,4 hPa 0,0 l/m 0,0 km/h (0 Bft) S-SW 202 0 min 2,9 C 19,6 C 0,0 km/h (0 Bft)
30.03.2021 19:25 20,3 C 10,9 C 16,0 C 19,9 C 19,0 C 0,0 C 31 % 43 % 1031,4 hPa 0,0 l/m 0,0 km/h (0 Bft) S-SW 202 0 min 2,6 C 19,0 C 0,0 km/h (0 Bft)
30.03.2021 19:30 19,7 C 11,0 C 15,4 C 19,2 C 18,1 C 0,0 C 32 % 47 % 1031,4 hPa 0,0 l/m 0,0 km/h (0 Bft) S-SW 202 0 min 2,5 C 18,1 C 0,0 km/h (0 Bft)
30.03.2021 19:35 19,3 C 11,0 C 15,0 C 18,7 C 17,4 C 0,0 C 33 % 47 % 1031,4 hPa 0,0 l/m 0,0 km/h (0 Bft) S-SW 202 0 min 2,6 C 17,4 C 0,0 km/h (0 Bft)
30.03.2021 19:40 18,7 C 10,9 C 14,5 C 18,0 C 16,5 C 0,0 C 34 % 47 % 1031,2 hPa 0,0 l/m 0,0 km/h (0 Bft) S-SW 202 0 min 2,5 C 16,5 C 0,0 km/h (0 Bft)
30.03.2021 19:45 18,2 C 10,9 C 14,2 C 17,4 C 15,8 C 0,0 C 35 % 48 % 1031,2 hPa 0,0 l/m 0,0 km/h (0 Bft) S-SW 202 0 min 2,5 C 15,8 C 0,0 km/h (0 Bft)
30.03.2021 19:50 17,6 C 10,9 C 13,7 C 16,6 C 14,6 C 0,0 C 36 % 49 % 1031,2 hPa 0,0 l/m 0,0 km/h (0 Bft) S-SW 202 0 min 2,4 C 14,6 C 0,0 km/h (0 Bft)
30.03.2021 19:55 17,1 C 10,9 C 13,4 C 16,1 C 14,0 C 0,0 C 36 % 49 % 1031,2 hPa 0,0 l/m 0,0 km/h (0 Bft) S-SW 202 0 min 1,9 C 14,0 C 0,0 km/h (0 Bft)
30.03.2021 20:00 16,4 C 11,0 C 12,9 C 15,3 C 13,2 C 0,0 C 38 % 50 % 1031,2 hPa 0,0 l/m 0,0 km/h (0 Bft) S-SW 202 0 min 2,1 C 13,2 C 0,0 km/h (0 Bft)
30.03.2021 20:05 16,0 C 11,0 C 12,6 C 14,9 C 12,8 C 0,0 C 39 % 52 % 1031,2 hPa 0,0 l/m 0,0 km/h (0 Bft) S-SW 202 0 min 2,1 C 12,8 C 0,0 km/h (0 Bft)
30.03.2021 20:10 15,4 C 11,0 C 12,2 C 14,3 C 12,2 C 0,0 C 41 % 53 % 1031,2 hPa 0,0 l/m 0,0 km/h (0 Bft) S-SW 202 0 min 2,2 C 12,2 C 0,0 km/h (0 Bft)
30.03.2021 20:15 15,1 C 11,0 C 11,9 C 14,0 C 11,9 C 0,0 C 42 % 53 % 1031,2 hPa 0,0 l/m 0,0 km/h (0 Bft) S-SW 202 0 min 2,3 C 11,9 C 0,0 km/h (0 Bft)
30.03.2021 20:20 14,4 C 11,0 C 11,5 C 13,3 C 11,2 C 0,0 C 43 % 55 % 1031,4 hPa 0,0 l/m 0,0 km/h (0 Bft) S-SW 202 0 min 2,0 C 11,2 C 0,0 km/h (0 Bft)
30.03.2021 20:25 14,1 C 11,0 C 11,3 C 13,0 C 10,9 C 0,0 C 44 % 56 % 1031,4 hPa 0,0 l/m 0,0 km/h (0 Bft) S-SW 202 0 min 2,0 C 10,9 C 0,0 km/h (0 Bft)
30.03.2021 20:30 13,7 C 11,0 C 11,0 C 12,6 C 10,4 C 0,0 C 46 % 56 % 1031,4 hPa 0,0 l/m 0,0 km/h (0 Bft) S-SW 202 0 min 2,3 C 10,4 C 0,0 km/h (0 Bft)
30.03.2021 20:35 13,3 C 11,0 C 10,8 C 12,2 C 10,1 C 0,0 C 47 % 57 % 1031,4 hPa 0,0 l/m 0,0 km/h (0 Bft) S-SW 202 0 min 2,2 C 10,1 C 0,0 km/h (0 Bft)
30.03.2021 20:40 12,9 C 11,0 C 10,6 C 11,9 C 9,8 C 0,0 C 49 % 59 % 1031,3 hPa 0,0 l/m 0,0 km/h (0 Bft) S-SW 202 0 min 2,5 C 9,8 C 0,0 km/h (0 Bft)
30.03.2021 20:45 12,5 C 11,1 C 10,5 C 11,5 C 9,6 C 0,0 C 50 % 60 % 1031,3 hPa 0,0 l/m 0,0 km/h (0 Bft) S-SW 202 0 min 2,4 C 9,6 C 0,0 km/h (0 Bft)
30.03.2021 20:50 12,1 C 11,1 C 10,1 C 11,2 C 9,3 C 0,0 C 52 % 61 % 1031,3 hPa 0,0 l/m 0,0 km/h (0 Bft) S-SW 202 0 min 2,5 C 9,3 C 0,0 km/h (0 Bft)
30.03.2021 20:55 11,9 C 11,1 C 9,8 C 11,0 C 9,2 C 0,0 C 53 % 62 % 1031,3 hPa 0,0 l/m 0,0 km/h (0 Bft) S-SW 202 0 min 2,6 C 9,2 C 0,0 km/h (0 Bft)
30.03.2021 21:00 11,5 C 11,1 C 9,6 C 10,7 C 9,0 C 0,0 C 53 % 64 % 1031,6 hPa 0,0 l/m 0,0 km/h (0 Bft) S-SW 202 0 min 2,3 C 9,0 C 0,0 km/h (0 Bft)
30.03.2021 21:05 11,2 C 11,1 C 9,5 C 10,4 C 8,8 C 0,0 C 55 % 65 % 1031,6 hPa 0,0 l/m 0,0 km/h (0 Bft) S-SW 202 0 min 2,5 C 8,8 C 0,0 km/h (0 Bft)
30.03.2021 21:10 10,9 C 11,1 C 9,1 C 10,1 C 8,6 C 0,0 C 56 % 66 % 1031,6 hPa 0,0 l/m 0,0 km/h (0 Bft) S-SW 202 0 min 2,5 C 8,6 C 0,0 km/h (0 Bft)
30.03.2021 21:15 10,7 C 11,1 C 9,1 C 9,9 C 8,4 C 0,0 C 57 % 66 % 1031,6 hPa 0,0 l/m 0,0 km/h (0 Bft) S-SW 202 0 min 2,5 C 8,4 C 0,0 km/h (0 Bft)
30.03.2021 21:20 10,5 C 11,1 C 8,9 C 9,7 C 8,0 C 0,0 C 58 % 67 % 1031,0 hPa 0,0 l/m 0,0 km/h (0 Bft) S-SW 202 0 min 2,6 C 8,0 C 0,0 km/h (0 Bft)
30.03.2021 21:25 10,3 C 11,1 C 8,8 C 9,5 C 7,9 C 0,0 C 59 % 68 % 1031,0 hPa 0,0 l/m 0,0 km/h (0 Bft) S-SW 202 0 min 2,6 C 7,9 C 0,0 km/h (0 Bft)
30.03.2021 21:30 10,0 C 11,1 C 8,7 C 9,2 C 7,7 C 0,0 C 61 % 69 % 1031,0 hPa 0,0 l/m 0,0 km/h (0 Bft) S-SW 202 0 min 2,8 C 7,7 C 0,0 km/h (0 Bft)
30.03.2021 21:35 9,8 C 11,1 C 8,4 C 9,0 C 7,4 C 0,0 C 61 % 69 % 1031,0 hPa 0,0 l/m 0,0 km/h (0 Bft) S-SW 202 0 min 2,6 C 7,4 C 0,0 km/h (0 Bft)
30.03.2021 21:40 9,6 C 11,1 C 8,1 C 8,8 C 7,2 C 0,0 C 61 % 70 % 1031,2 hPa 0,0 l/m 0,0 km/h (0 Bft) S-SW 202 0 min 2,5 C 7,2 C 0,0 km/h (0 Bft)
30.03.2021 21:45 9,5 C 11,0 C 8,0 C 8,7 C 7,2 C 0,0 C 62 % 70 % 1031,2 hPa 0,0 l/m 0,0 km/h (0 Bft) S-SW 202 0 min 2,6 C 7,2 C 0,0 km/h (0 Bft)
30.03.2021 21:50 9,1 C 11,0 C 7,9 C 8,4 C 7,0 C 0,0 C 63 % 72 % 1031,2 hPa 0,0 l/m 0,0 km/h (0 Bft) S-SW 202 0 min 2,4 C 7,0 C 0,0 km/h (0 Bft)
30.03.2021 21:55 8,9 C 11,0 C 7,7 C 8,2 C 6,8 C 0,0 C 64 % 72 % 1031,2 hPa 0,0 l/m 0,0 km/h (0 Bft) S-SW 202 0 min 2,5 C 6,8 C 0,0 km/h (0 Bft)
30.03.2021 22:00 8,7 C 11,0 C 7,5 C 8,0 C 6,5 C 0,0 C 64 % 73 % 1031,5 hPa 0,0 l/m 0,0 km/h (0 Bft) S-SW 202 0 min 2,3 C 6,5 C 0,0 km/h (0 Bft)
30.03.2021 22:05 8,5 C 11,0 C 7,5 C 7,8 C 6,3 C 0,0 C 65 % 73 % 1031,5 hPa 0,0 l/m 0,0 km/h (0 Bft) S-SW 202 0 min 2,3 C 6,3 C 0,0 km/h (0 Bft)
30.03.2021 22:10 8,3 C 11,0 C 7,5 C 7,5 C 6,0 C 0,0 C 66 % 73 % 1031,5 hPa 0,0 l/m 0,0 km/h (0 Bft) S-SW 202 0 min 2,3 C 6,0 C 0,0 km/h (0 Bft)
30.03.2021 22:15 8,2 C 11,1 C 7,3 C 7,4 C 5,9 C 0,0 C 66 % 74 % 1031,5 hPa 0,0 l/m 0,0 km/h (0 Bft) S-SW 202 0 min 2,2 C 5,9 C 0,0 km/h (0 Bft)
30.03.2021 22:20 7,9 C 11,1 C 7,0 C 7,2 C 5,9 C 0,0 C 66 % 75 % 1031,1 hPa 0,0 l/m 0,0 km/h (0 Bft) S-SW 202 0 min 1,9 C 5,9 C 0,0 km/h (0 Bft)
30.03.2021 22:25 7,7 C 11,1 C 7,0 C 7,1 C 5,8 C 0,0 C 67 % 75 % 1031,1 hPa 0,0 l/m 0,0 km/h (0 Bft) S-SW 202 0 min 2,0 C 5,8 C 0,0 km/h (0 Bft)
30.03.2021 22:30 7,6 C 11,1 C 6,9 C 7,0 C 5,7 C 0,0 C 68 % 75 % 1031,1 hPa 0,0 l/m 0,0 km/h (0 Bft) S-SW 202 0 min 2,1 C 5,7 C 0,0 km/h (0 Bft)
30.03.2021 22:35 7,5 C 11,1 C 6,8 C 6,8 C 5,5 C 0,0 C 68 % 75 % 1031,1 hPa 0,0 l/m 0,0 km/h (0 Bft) S-SW 202 0 min 2,0 C 5,5 C 0,0 km/h (0 Bft)
30.03.2021 22:40 7,2 C 11,1 C 6,7 C 6,6 C 5,3 C 0,0 C 69 % 76 % 1031,2 hPa 0,0 l/m 0,0 km/h (0 Bft) S-SW 202 0 min 1,9 C 5,3 C 0,0 km/h (0 Bft)
30.03.2021 22:45 7,2 C 11,1 C 6,5 C 6,6 C 5,3 C 0,0 C 69 % 76 % 1031,2 hPa 0,0 l/m 0,0 km/h (0 Bft) S-SW 202 0 min 1,9 C 5,3 C 0,0 km/h (0 Bft)
30.03.2021 22:50 6,9 C 11,1 C 6,4 C 6,3 C 5,2 C 0,0 C 70 % 77 % 1031,2 hPa 0,0 l/m 0,0 km/h (0 Bft) S-SW 202 0 min 1,8 C 5,2 C 0,0 km/h (0 Bft)
30.03.2021 22:55 6,8 C 11,1 C 6,4 C 6,2 C 5,0 C 0,0 C 70 % 77 % 1031,2 hPa 0,0 l/m 0,0 km/h (0 Bft) S-SW 202 0 min 1,7 C 5,0 C 0,0 km/h (0 Bft)
30.03.2021 23:00 6,7 C 11,1 C 6,2 C 6,0 C 4,7 C 0,0 C 70 % 77 % 1031,2 hPa 0,0 l/m 0,0 km/h (0 Bft) S-SW 202 0 min 1,6 C 4,7 C 0,0 km/h (0 Bft)
30.03.2021 23:05 6,6 C 11,1 C 6,1 C 6,0 C 4,7 C 0,0 C 70 % 77 % 1031,2 hPa 0,0 l/m 0,0 km/h (0 Bft) S-SW 202 0 min 1,5 C 4,7 C 0,0 km/h (0 Bft)
30.03.2021 23:10 6,4 C 11,0 C 6,0 C 5,8 C 4,5 C 0,0 C 71 % 78 % 1031,2 hPa 0,0 l/m 0,0 km/h (0 Bft) S-SW 202 0 min 1,5 C 4,5 C 0,0 km/h (0 Bft)
30.03.2021 23:15 6,3 C 11,0 C 5,9 C 5,6 C 4,3 C 0,0 C 71 % 78 % 1031,2 hPa 0,0 l/m 0,0 km/h (0 Bft) S-SW 202 0 min 1,4 C 4,3 C 0,0 km/h (0 Bft)
30.03.2021 23:20 6,0 C 11,0 C 5,8 C 5,4 C 4,1 C 0,0 C 72 % 78 % 1032,2 hPa 0,0 l/m 0,0 km/h (0 Bft) S-SW 202 0 min 1,3 C 4,1 C 0,0 km/h (0 Bft)
30.03.2021 23:25 6,0 C 11,0 C 5,8 C 5,4 C 4,1 C 0,0 C 72 % 78 % 1032,2 hPa 0,0 l/m 0,0 km/h (0 Bft) S-SW 202 0 min 1,3 C 4,1 C 0,0 km/h (0 Bft)
30.03.2021 23:30 5,8 C 11,0 C 5,7 C 5,2 C 3,9 C 0,0 C 73 % 79 % 1032,2 hPa 0,0 l/m 0,0 km/h (0 Bft) S-SW 202 0 min 1,3 C 3,9 C 0,0 km/h (0 Bft)
30.03.2021 23:35 5,8 C 11,0 C 5,6 C 5,1 C 3,8 C 0,0 C 74 % 79 % 1032,2 hPa 0,0 l/m 0,0 km/h (0 Bft) S-SW 202 0 min 1,5 C 3,8 C 0,0 km/h (0 Bft)
30.03.2021 23:40 5,6 C 11,0 C 5,5 C 5,0 C 3,7 C 0,0 C 74 % 79 % 1031,9 hPa 0,0 l/m 0,0 km/h (0 Bft) S-SW 202 0 min 1,3 C 3,7 C 0,0 km/h (0 Bft)
30.03.2021 23:45 5,6 C 11,0 C 5,5 C 4,9 C 3,6 C 0,0 C 74 % 79 % 1031,9 hPa 0,0 l/m 0,0 km/h (0 Bft) S-SW 202 0 min 1,3 C 3,6 C 0,0 km/h (0 Bft)
30.03.2021 23:50 5,5 C 11,0 C 5,3 C 4,9 C 3,6 C 0,0 C 75 % 80 % 1031,9 hPa 0,0 l/m 0,0 km/h (0 Bft) S-SW 202 0 min 1,4 C 3,6 C 0,0 km/h (0 Bft)
30.03.2021 23:55 5,4 C 11,0 C 5,2 C 4,8 C 3,5 C 0,0 C 75 % 80 % 1031,9 hPa 0,0 l/m 0,0 km/h (0 Bft) S-SW 202 0 min 1,3 C 3,5 C 0,0 km/h (0 Bft)
_ Min-Zeit 07:30 09:50 06:40 06:55 06:55 00:00 18:00 14:05 21:20 - 00:00 - - - 07:30 06:55 00:00
Minimum _ 1,8 C 8,7 C 1,9 C 1,4 C 0,5 C 0,0 C 26 % 30 % 1031,0 hPa - 0,0 km/h (0 Bft) - - - -0,8 C 0,5 C 0,0 km/h (0 Bft)
_ Max-Zeit 16:25 20:45 12:40 15:15 15:15 08:55 08:20 07:40 11:20 00:00 13:35 - - 08:00 10:15 15:15 13:30
Maximum _ 22,7 C 11,1 C 25,8 C 27,4 C 27,4 C 13,6 C 87 % 89 % 1035,1 hPa 0,0 l/m 7,2 km/h
SW (2 Bft)
- - 5 min 7,0 C 27,4 C 13,0 km/h
SW (3 Bft)
Durchschnitt _ 11,9 C 9,9 C 11,6 C 13,7 C 13,2 C 2,1 C 59 % 63 % 1033,1 hPa #0,0 l/m 1,4 km/h (1 Bft) SW - #7:25 h 3,0 C 13,2 C 1,8 km/h (1 Bft)
2021 www.wetterstation-wechselburg.de